Regional Weather Roundup
Issued by NWS

Home | Current Version | Previous Version | Graphics & Text | Print | Product List | Glossary Off
Versions: 1 2 3 4 5 6 7 8 9 10 11 12 13 14 15 16 17 18 19 20 21 22 23 24 25 26 27 28 29 30 31 32 33 34 35 36 37 38 39 40 41 42 43 44 45 46 47 48 49 50

000
ASUS43 KMKX 272100
RWRWI

WISCONSIN REGIONAL WEATHER ROUNDUP
NATIONAL WEATHER SERVICE MILWAUKEE/SULLIVAN WI
400 PM CDT WED JUL 27 2016

NOTE: "FAIR" INDICATES FEW OR NO CLOUDS BELOW 12,000 FEET WITH NO
SIGNIFICANT WEATHER AND/OR OBSTRUCTIONS TO VISIBILITY.

WIZ001-002-006>008-014>016-023>028-272200-
NORTHWEST WISCONSIN

CITY           SKY/WX    TMP DP  RH WIND       PRES   REMARKS
SUPERIOR ARPT  CLOUDY    62  60  94 E14G21    30.02F
ASHLAND        LGT RAIN  64  62  93 NE9       30.04R
HAYWARD        RAIN      68  67  96 N7        30.01R FOG
SIREN          NOT AVBL
CUMBERLAND     TSTM      66  63  88 E5        29.98R
RICE LAKE      CLOUDY    71  67  87 NW16G23   29.95F
CHETEK         CLOUDY    74  70  87 E8        29.93F
LADYSMITH      CLOUDY    73  68  83 E6        29.99S
EAU CLAIRE     NOT AVBL
MENOMONIE      CLOUDY    80  68  66 S8        29.94R HX  83
NEW RICHMOND   RAIN      72  70  94 SW8       29.96S
OSCEOLA        HVY RAIN  66  66 100 W12G20    30.02R
$$

WIZ003>005-009-010-017-018-272200-
NORTH CENTRAL WISCONSIN

CITY           SKY/WX    TMP DP  RH WIND       PRES   REMARKS
MANITOWISH WTR LGT RAIN  71  69  93 CALM      30.02F
ARBOR VITAE    CLOUDY    72  67  83 CALM      30.02F
WOODRUFF       CLOUDY    72  67  83 CALM      30.02F
RHINELANDER    CLOUDY    71  66  84 CALM      30.03S
EAGLE RIVER    LGT RAIN  70  64  80 CALM      30.02S
LAND O LAKES   CLOUDY    70  66  87 CALM      30.04S
PHILLIPS       CLOUDY    68  66  93 E5        29.99F
TOMAHAWK       CLOUDY    70  65  83 CALM      30.01F
MEDFORD        CLOUDY    74  70  87 E3        29.98F
MERRILL        CLOUDY    73  69  88 E3        30.00F
$$

WIZ029-030-035-036-043>047-272200-
CENTRAL WISCONSIN

CITY           SKY/WX    TMP DP  RH WIND       PRES   REMARKS
WAUSAU         CLOUDY    78  67  68 CALM      29.96F HX  80
MOSINEE        NOT AVBL
MARSHFIELD     CLOUDY    81  68  64 SE8       29.95F HX  84
STEVENS POINT  SUNNY     79  65  61 S7        29.97F HX  81
WAUPACA        CLOUDY    80  68  66 CALM      29.97F HX  82
WAUTOMA        CLOUDY    74  69  85 SE6       29.97F
WISC RAPIDS    CLOUDY    81  64  56 SE9       29.97F HX  82
CAMP DOUGLAS   NOT AVBL
$$

WIZ011>013-019>022-031-037>040-048>050-272200-
NORTHEAST WISCONSIN

CITY           SKY/WX    TMP DP  RH WIND       PRES   REMARKS
ANTIGO         CLOUDY    73  67  83 CALM      30.01F
SHAWANO        MOSUNNY   80  67  65 CALM      29.97F HX  82
OCONTO         PTSUNNY   75  69  81 CALM      29.95F
STURGEON BAY   CLOUDY    76  65  68 N5        29.96F
GREEN BAY      MOSUNNY   79  70  74 S8        29.96F HX  82
MANITOWOC      NOT AVBL
APPLETON       PTSUNNY   77  64  65 VRB6      29.96F
CLINTONVILLE   MOSUNNY   79  64  61 CALM      29.96F HX  81
OSHKOSH        PTSUNNY   76  68  76 S7        29.97F
$$

WIZ032>034-041-042-053>061-272200-
SOUTHWEST WISCONSIN

CITY           SKY/WX    TMP DP  RH WIND       PRES   REMARKS
LA CROSSE      CLOUDY    83  68  60 SW9       29.92F HX  86
SPARTA         MOSUNNY   83  69  62 SW8       29.95F HX  86
VIROQUA        CLOUDY    83  68  60 SW9       29.97F HX  85
BOSCOBEL       CLOUDY    86  66  51 S7        29.94F HX  88
PRAIRIE DU CHI CLOUDY    83  64  53 SW5       29.95F HX  84
PLATTEVILLE    MOSUNNY   83  67  56 S9        29.98F HX  86
$$

WIZ056-057-062-063-064-067-068-272200-
SOUTH CENTRAL WISCONSIN

CITY           SKY/WX    TMP DP  RH WIND       PRES   REMARKS
REEDSBURG      CLOUDY    80  69  69 NE15      29.97S HX  83
BARABOO/DELLS  CLOUDY    78  68  71 NE10      29.98F HX  80
LONE ROCK      NOT AVBL
MINERAL POINT  MOSUNNY   86  64  48 S7        29.98F HX  87
MADISON        PTSUNNY   85  70  60 NE12      29.96F HX  89
MIDDLETON      MOSUNNY   87  64  46 SW5       29.97F HX  88
WATERTOWN      PTSUNNY   79  68  69 NE20G29   29.98R HX  81
MONROE         MOSUNNY   84  63  48 SW6       29.98F HX  85
JANESVILLE     NOT AVBL
$$

WIZ051-052-058>065-066-070>072-272200-
SOUTHEAST WISCONSIN

CITY           SKY/WX    TMP DP  RH WIND       PRES   REMARKS
MILWAUKEE      PTSUNNY   75  65  70 NE15G25   29.97R
WAUKESHA       NOT AVBL
MILWAUKEE/TIMM RAIN      75  63  64 NE6       30.00R
RACINE         PTSUNNY   85  65  51 SE7       29.97F HX  86
BURLINGTON     MOSUNNY   87  64  46 W3        29.97F HX  87
KENOSHA        MOSUNNY   85  66  53 E9        29.96S HX  87
FOND DU LAC    LGT RAIN  75  70  84 SE14      29.99F
SHEBOYGAN      LGT RAIN  72  67  84 CALM      29.98F
WEST BEND      LGT RAIN  70  63  78 NE7       30.00S
JUNEAU         CLOUDY    71  69  94 E9        30.00F
$$

LSZ147-162-272200-
LAKE SUPERIOR

STATION/POSITION TIME  TEMP    WIND        PRES    WAVE
                       AIR SEA DIR/SP/G            HT/PER
                 (UTC) (F)     (DEG/KT/KT) (MB)    (FT/S)
W MID LAKE BUOY  1950   61 60   70/ 12/ 14 1016.6R   2/ 4
DEVILS ISLAND    2000   60      60/ 17/ 19 1017.7R
PORT WING        2000   65      50/  9/ 19 1016.9R
SAXON HARBOR     2000   66      30/ 14/ 16 1015.9
$$

LMZ867-665-643>646-272200-
LAKE MICHIGAN

STATION/POSITION TIME  TEMP    WIND        PRES    WAVE
                       AIR SEA DIR/SP/G            HT/PER
                 (UTC) (F)     (DEG/KT/KT) (MB)    (FT/S)
CHAMBERS ISLAND  2000   79     310/  3/  4 1014.2F
S GREEN BAY BUOY 2000   73 75  260/  4/  4   N/A
N MID LAKE BUOY  1950   71 71  280/  6/  8 1013.3F   1
NORTHPORT PIER   2000   74     310/  7/  9 1013.5F
SISTER BAY       2006   78     350/  7/  8   N/A
ALGOMA LAKESHORE 2028             CALM       N/A
KEWAUNEE LAKESHO 2000          180/  8/  9 1014.1F
SHEBOYGAN LAKESH 2000   71     260/  1/  1 1015.7F
PORT WASHINGTON  2000   71      30/  6/ 12 1016.3R
ATWATER BUOY     2000   70 62   50/ 14/ 16 1016.8R
MILWAUKEE LAKESH 2010   69      30/ 18/ 20   N/A
S MID LAKE BUOY  1950   77 77  160/  6/  6 1014.2F   0
KENOSHA   LAKESH 2000   78      CALM  /  3 1014.2F
$$

TC  - TEMPERATURE IN CELSIUS
VSB - VISIBILITY IN STATUTE MILES
WCI - WIND CHILL INDEX
HX  - HEAT INDEX




USA.gov is the U.S. government's official web portal to all federal, state and local government web resources and services.